Spokane, WA

5:38 AM PDT on September 29, 2016 (GMT -0700)
Spokane International

Weather History for KGEG - August, 2012

Change the Weather History Date:

Friday, August 10, 2012

  Actual Average Record
Temperature  
Mean Temperature 73 °F 71 °F  
Max Temperature 91 °F 85 °F 103 °F (1898)
Min Temperature 54 °F 57 °F 43 °F (1887)
Degree Days  
Heating Degree Days 0 1  
Month to date heating degree days 0 5  
Since 1 June heating degree days 195 173  
Since 1 July heating degree days 20 37  
Cooling Degree Days 8 7  
Month to date cooling degree days 93 70  
Year to date cooling degree days 374 313  
Since 1 June cooling degree days 364 299  
Growing Degree Days 22 (Base 50)    
Moisture  
Dew Point 40 °F    
Average Humidity 41    
Maximum Humidity 71    
Minimum Humidity 11    
Precipitation  
Precipitation 0.00 in 0.02 in 0.42 in (1983)
Month to date precipitation T 0.17  
Year to date precipitation 13.83 9.69  
Snow  
Snow 0.00 in 0.00 in 0.00 in (2002)
Month to date snowfall 0.0 0.0  
Since 1 June snowfall 0.0 0.0  
Since 1 July snowfall 0.0 0.0  
Snow Depth 0.00 in    
Sea Level Pressure  
Sea Level Pressure 29.92 in    
Wind  
Wind Speed 4 mph (NW)    
Max Wind Speed 13 mph    
Max Gust Speed 18 mph    
Visibility 10 miles    
Events      
T = Trace of Precipitation, MM = Missing Value Source: NWS Daily Summary

Daily Weather History Graph

Daily Weather History Graph

Search for Another Location

Airport or City:

Trip Planner

Search our weather history database for the weather conditions in past years. The results will help you decide how hot, cold, wet, or windy it might be!

Date:

Astronomy

Aug. 10, 2012 Rise Set
Actual Time 5:39 AM PDT 8:09 PM PDT
Civil Twilight 5:05 AM PDT 8:44 PM PDT
Nautical Twilight 4:21 AM PDT 9:27 PM PDT
Astronomical Twilight 3:31 AM PDT 10:17 PM PDT
Moon No Moon Rise 3:01 PM PDT (8/10)
Length of Visible Light 15h 38m
Length of Day
14h 29m
Last Quarter, 41% of the Moon is Illuminated
Aug 10
Last Quarter
Aug 17
New
Aug 24
First Quarter
Aug 31
Full
Sep 8
Last Quarter

Hourly Weather History & Observations

Time (PDT) Temp. Dew Point Humidity Pressure Visibility Wind Dir Wind Speed Gust Speed Precip Events Conditions
12:53 AM 63.0 °F 43.0 °F 48% 29.96 in 10.0 mi Calm Calm - N/A   Clear
1:53 AM 61.0 °F 43.0 °F 52% 29.95 in 10.0 mi Calm Calm - N/A   Clear
2:53 AM 60.1 °F 44.1 °F 55% 29.95 in 10.0 mi Calm Calm - N/A   Clear
3:53 AM 57.0 °F 43.0 °F 59% 29.95 in 10.0 mi Calm Calm - N/A   Clear
4:53 AM 54.0 °F 44.1 °F 69% 29.96 in 10.0 mi Calm Calm - N/A   Clear
5:53 AM 57.0 °F 46.9 °F 69% 29.96 in 10.0 mi Calm Calm - N/A   Partly Cloudy
6:53 AM 60.8 °F 48.2 °F 63% 30.02 in 10.0 mi NNE 4.6 mph - N/A   Partly Cloudy
7:53 AM 64.0 °F 50.0 °F 60% 29.97 in 10.0 mi NE 4.6 mph - N/A   Partly Cloudy
8:53 AM 66.9 °F 50.0 °F 54% 29.97 in 10.0 mi ENE 5.8 mph - N/A   Partly Cloudy
9:53 AM 71.1 °F 51.1 °F 49% 29.96 in 10.0 mi NE 4.6 mph - N/A   Partly Cloudy
10:53 AM 75.0 °F 48.9 °F 40% 29.96 in 10.0 mi Calm Calm - N/A   Partly Cloudy
11:53 AM 81.0 °F 44.1 °F 27% 29.94 in 10.0 mi Calm Calm - N/A   Partly Cloudy
12:53 PM 84.0 °F 39.9 °F 21% 29.92 in 10.0 mi Variable 4.6 mph - N/A   Partly Cloudy
1:53 PM 87.1 °F 34.0 °F 15% 29.90 in 10.0 mi North 6.9 mph - N/A   Scattered Clouds
2:53 PM 89.1 °F 33.1 °F 14% 29.89 in 10.0 mi Calm Calm - N/A   Scattered Clouds
3:53 PM 89.1 °F 28.0 °F 11% 29.88 in 10.0 mi Calm Calm - N/A   Scattered Clouds
4:53 PM 89.1 °F 30.9 °F 12% 29.87 in 10.0 mi West 9.2 mph - N/A   Scattered Clouds
5:53 PM 88.0 °F 32.0 °F 14% 29.86 in 10.0 mi Variable 5.8 mph - N/A   Scattered Clouds
6:53 PM 87.1 °F 28.0 °F 12% 29.86 in 10.0 mi NW 10.4 mph - N/A   Partly Cloudy
7:53 PM 82.9 °F 32.0 °F 16% 29.87 in 10.0 mi NW 5.8 mph - N/A   Partly Cloudy
8:53 PM 75.9 °F 37.0 °F 24% 29.88 in 10.0 mi West 6.9 mph - N/A   Clear
9:53 PM 73.9 °F 37.0 °F 26% 29.89 in 10.0 mi WSW 5.8 mph - N/A   Clear
10:53 PM 70.0 °F 37.9 °F 31% 29.90 in 10.0 mi WSW 9.2 mph - N/A   Clear
11:53 PM 68.0 °F 36.0 °F 31% 29.91 in 10.0 mi WSW 5.8 mph - N/A   Clear